Location: Unspecified
(47.9110°N, 14.3980°E)
Time: 07:57:17
(UTC+00:00)

Cosmos 967 Rocket - Pass Details

Date: 06 August 2020
Orbit: 949 x 988 km, 65.8° (Epoch: 26 September)

Event Time Altitude Azimuth Distance (km) Brightness Sun altitude
Rises 22:04:57 0° 323° (NW) 3,690 8.7 -24.2°
Reaches altitude 10° 22:07:32 10° 325° (NW) 2,734 7.8 -24.3°
Maximum altitude 22:13:57 77° 52° (NE) 997 4.5 -24.6°
Enters shadow 22:15:47 49° 127° (SE) 1,231 4.7 -24.7°
